Regional Weather Roundup
Issued by NWS

Home | Current Version | Previous Version | Text Only | Print | Product List | Glossary Off
Versions: 1 2 3 4 5 6 7 8 9 10 11 12 13 14 15 16 17 18 19 20 21 22 23 24 25 26 27 28 29 30 31 32 33 34 35 36 37 38 39 40 41 42 43 44 45 46 47 48 49 50

000
ASUS45 KABQ 270210
RWRNM
WEATHER ROUNDUP FOR NEW MEXICO
NATIONAL WEATHER SERVICE ALBUQUERQUE NM
800 PM MDT TUE AUG 26 2014

NOTE: "FAIR" MEANS FEW OR NO CLOUDS BELOW 12,000 FEET AGL WITH NO
       SIGNIFICANT WEATHER OR OBSTRUCTIONS TO VISION.

      THIS PRODUCT IS RELEASED AS TWO VERSIONS.  ONE VERSION NEAR
      THE TOP OF THE HOUR CONTAINING PRELIMINARY DATA FROM ALBUQUERQUE
      AND OTHER STATIONS.  A FINAL VERSION WITH ADDITIONAL DATA IS
      ISSUED ABOUT 10 MINUTES AFTER THE HOUR.

NMZ501-503-504-510>518-270300-
NORTHWEST PLATEAU/NORTHCENTRAL MOUNTAINS

CITY           SKY/WX    TMP DP  RH WIND       PRES   REMARKS
FARMINGTON     LGT RAIN  58  54  86 W25G33    30.23R
LOS ALAMOS     CLOUDY    57  57  99 CALM      30.33F
SANTA FE       CLOUDY    60  57  89 N7        30.27F
TAOS           CLOUDY    55  52  88 S3        30.34F
ANGEL FIRE     LGT RAIN  53  50  89 CALM      30.43S

$$
NMZ402-403-502-505>509-270300-
WESTCENTRAL MOUNTAINS/SOUTHWEST MOUNTAINS

CITY           SKY/WX    TMP DP  RH WIND       PRES   REMARKS
GALLUP         RAIN      59  53  80 W18G33    30.32R
SILVER CITY    CLOUDY    73  59  60 NW8       30.21R

$$
NMZ407-409-411-412-270300-
SOUTHERN DESERTS

CITY           SKY/WX    TMP DP  RH WIND       PRES   REMARKS
LORDSBURG      FAIR      70  61  73 CALM      30.14R
DEMING         MOCLDY    78  59  51 W8        30.12R
LAS CRUCES     CLOUDY    82  56  39 SE6       30.14R
HOLLOMAN AFB   CLOUDY    75  64  69 SW8       30.13R
ALAMOGORDO     CLOUDY    73  63  68 S10       30.15R
T OR C         CLOUDY    78  53  41 W7        30.14R

$$
NMZ519>523-270300-
CENTRAL VALLEYS/CENTRAL HIGHLANDS

CITY           SKY/WX    TMP DP  RH WIND       PRES   REMARKS
ALBUQUERQUE    MOCLDY    73  52  47 S9        30.20R
DOUBLE EAGLE   MOCLDY    64  55  72 N13       30.24R
MORIARTY ARPT  MOCLDY    64  57  80 CALM      30.29S
CLINES CORNERS CLOUDY    61  55  81 CALM      30.32R
BELEN          CLOUDY    67  58  73 CALM      30.19F
SOCORRO        CLOUDY    70  62  75 CALM      30.17S THUNDER

$$
NMZ524>526-539-540-270300-
SOUTHCENTRAL MOUNTAINS

CITY           SKY/WX    TMP DP  RH WIND       PRES   REMARKS
RUIDOSO        CLOUDY    59  55  88 CALM      30.36R

$$
NMZ527>531-270300-
NORTHEAST HIGHLANDS/NORTHEAST PLAINS

CITY           SKY/WX    TMP DP  RH WIND       PRES   REMARKS
LAS VEGAS      CLOUDY    61  56  83 S8        30.32R
RATON          CLOUDY    67  53  61 N7        30.25R
CLAYTON        TSTM      64  62  93 E10       30.24R FOG

$$
NMZ532>537-270300-
EASTCENTRAL PLAINS

CITY           SKY/WX    TMP DP  RH WIND       PRES   REMARKS
TUCUMCARI      TSTM      69  63  81 W10       30.19R
CANNON AFB     MOCLDY    76  61  58 NW13G22   30.17R
CLOVIS AIRPORT   N/A     75  55  50 S5        30.18R

$$
NMZ028-029-538-270300-
SOUTHEAST PLAINS

CITY           SKY/WX    TMP DP  RH WIND       PRES   REMARKS
ROSWELL        CLOUDY    73  66  78 W8        30.11S
CARLSBAD       CLOUDY    75  65  70 NW16      30.07R
HOBBS          CLOUDY    84  54  34 S3        30.11R


$$



USA.gov is the U.S. government's official web portal to all federal, state and local government web resources and services.